TimeEST,TemperatureF,Dew PointF,Humidity,Sea Level PressureIn,VisibilityMPH,Wind Direction,Wind SpeedMPH,Gust SpeedMPH,PrecipitationIn,Events,Conditions,WindDirDegrees,DateUTC
12:00 AM,41.0,35.6,81,29.65,15.0,ENE,16.1,31.1,N/A,,Overcast,60,2013-03-04 05:00:00
1:00 AM,42.8,35.6,76,29.66,15.0,ENE,16.1,32.2,N/A,,Overcast,70,2013-03-04 06:00:00
2:00 AM,42.8,33.8,70,29.66,15.0,ENE,16.1,26.5,N/A,,Overcast,60,2013-03-04 07:00:00
3:00 AM,42.8,32.0,66,29.67,15.0,ENE,16.1,27.6,N/A,,Overcast,60,2013-03-04 08:00:00
4:00 AM,42.8,32.0,66,29.68,15.0,NE,16.1,25.3,N/A,,Overcast,50,2013-03-04 09:00:00
5:00 AM,42.8,30.2,61,29.70,15.0,ENE,16.1,27.6,N/A,,Mostly Cloudy,60,2013-03-04 10:00:00
6:00 AM,42.8,28.4,57,29.72,30.0,NE,13.8,20.7,N/A,,Mostly Cloudy,40,2013-03-04 11:00:00
7:00 AM,42.8,26.6,53,29.74,30.0,NE,21.9,27.6,N/A,,Mostly Cloudy,50,2013-03-04 12:00:00
8:00 AM,42.8,28.4,57,29.75,30.0,NE,16.1,23.0,N/A,,Mostly Cloudy,50,2013-03-04 13:00:00
9:00 AM,42.8,28.4,57,29.76,30.0,NE,11.5,28.8,N/A,,Mostly Cloudy,50,2013-03-04 14:00:00
10:00 AM,44.6,28.4,53,29.76,30.0,ENE,17.3,26.5,N/A,,Mostly Cloudy,60,2013-03-04 15:00:00
11:00 AM,44.6,28.4,53,29.76,30.0,ENE,17.3,26.5,N/A,,Mostly Cloudy,60,2013-03-04 16:00:00
12:00 PM,44.6,28.4,53,29.77,30.0,ENE,16.1,23.0,N/A,Rain,Light Rain,60,2013-03-04 17:00:00
1:00 PM,42.8,30.2,61,29.78,30.0,ENE,15.0,23.0,N/A,Rain,Light Rain,60,2013-03-04 18:00:00
2:00 PM,44.6,30.2,57,29.80,30.0,ENE,17.3,25.3,N/A,Rain,Light Rain,60,2013-03-04 19:00:00
3:00 PM,41.0,32.0,70,29.82,20.0,NE,19.6,26.5,N/A,Rain,Light Rain,50,2013-03-04 20:00:00
4:00 PM,41.0,33.8,76,29.84,20.0,ENE,15.0,20.7,N/A,Rain,Light Rain,60,2013-03-04 21:00:00
5:00 PM,39.2,33.8,81,29.87,20.0,ENE,11.5,17.3,N/A,Rain,Light Rain,60,2013-03-04 22:00:00
6:00 PM,39.2,32.0,75,29.89,15.0,NE,8.1,-,N/A,Rain,Light Rain,40,2013-03-04 23:00:00
7:00 PM,39.2,32.0,75,29.92,15.0,ENE,10.4,18.4,N/A,Rain,Light Rain Showers,60,2013-03-05 00:00:00
8:00 PM,41.0,30.2,65,29.94,15.0,ENE,15.0,-,N/A,Rain,Light Rain Showers,60,2013-03-05 01:00:00
9:00 PM,41.0,30.2,65,29.95,15.0,ENE,12.7,-,N/A,Rain,Light Rain Showers,70,2013-03-05 02:00:00
10:00 PM,39.2,30.2,70,29.97,15.0,ENE,12.7,-,N/A,Rain,Light Rain Showers,60,2013-03-05 03:00:00
11:00 PM,39.2,32.0,75,29.99,15.0,NNE,8.1,-,N/A,Rain,Light Rain Showers,30,2013-03-05 04:00:00